Location: Chèvreville
(49.1099°N, 2.8495°E)
Time: 13:41:09
(UTC+00:00)

BlueWalker 3 - Pass Details

Date: 24 January 2026
Orbit: 450 x 461 km, 53.2° (Epoch: 11 February)

Event Time Altitude Azimuth Distance (km) Brightness Sun altitude
Rises 17:10:12 0° 210° (SSW) 2,447 6.4 -6.4°
Reaches altitude 10° 17:12:32 10° 198° (SSW) 1,577 5.1 -6.8°
Maximum altitude 17:15:33 26° 140° (SE) 912 3.1 -7.2°
Drops below altitude 10° 17:18:35 10° 81° (E) 1,583 3.8 -7.7°
Enters shadow 17:18:39 10° 81° (E) 1,604 3.8 -7.7°
